| time (UTC) | temp C | wind direction | speed KPH | gust KPH | rain 1hr cm | rain 24hr cm | rain mn cm | humidity % | barometer mb |
| 20260505035751 | 16 | 321 | 3.2 | 14.5 | 0.00 | 0.00 | 0.00 | 53 | 1009.4 |
| 20260505035512 | 16 | 300 | 3.2 | 14.5 | 0.00 | 0.00 | 0.00 | 53 | 1009.3 |
| 20260505034751 | 16 | 283 | 4.8 | 14.5 | 0.00 | 0.00 | 0.00 | 53 | 1009.2 |
| 20260505034519 | 16 | 261 | 4.8 | 16.1 | 0.00 | 0.00 | 0.00 | 52 | 1009.3 |
| 20260505033751 | 16 | 237 | 3.2 | 16.1 | 0.00 | 0.00 | 0.00 | 53 | 1009.3 |
| 20260505033250 | 16 | 262 | 4.8 | 14.5 | 0.00 | 0.00 | 0.00 | 52 | 1009.2 |
| 20260505032750 | 16 | 275 | 3.2 | 11.3 | 0.00 | 0.00 | 0.00 | 52 | 1009.2 |
| 20260505032517 | 16 | 248 | 3.2 | 11.3 | 0.00 | 0.00 | 0.00 | 52 | 1009.1 |
| 20260505031750 | 16 | 261 | 3.2 | 11.3 | 0.00 | 0.00 | 0.00 | 51 | 1009.1 |
| 20260505031516 | 16 | 262 | 3.2 | 11.3 | 0.00 | 0.00 | 0.00 | 51 | 1009.1 |
| 20260505030750 | 16 | 255 | 4.8 | 14.5 | 0.00 | 0.00 | 0.00 | 51 | 1009.1 |
| 20260505030250 | 16 | 294 | 4.8 | 14.5 | 0.00 | 0.00 | 0.00 | 51 | 1009.0 |
| 20260505025750 | 16 | 241 | 4.8 | 14.5 | 0.00 | 0.00 | 0.00 | 51 | 1009.0 |
| 20260505025250 | 16 | 274 | 3.2 | 17.7 | 0.00 | 0.00 | 0.00 | 50 | 1009.1 |
| 20260505024750 | 16 | 104 | 4.8 | 17.7 | 0.00 | 0.00 | 0.00 | 50 | 1009.1 |
| 20260505024250 | 17 | 257 | 6.4 | 17.7 | 0.00 | 0.00 | 0.00 | 50 | 1009.0 |
| 20260505024009 | 17 | 260 | 6.4 | 17.7 | 0.00 | 0.00 | 0.00 | 50 | 1009.2 |
| 20260505023250 | 17 | 266 | 4.8 | 17.7 | 0.00 | 0.00 | 0.00 | 50 | 1009.1 |
| 20260505022750 | 17 | 97 | 4.8 | 14.5 | 0.00 | 0.00 | 0.00 | 49 | 1009.1 |
| 20260505022251 | 17 | 293 | 4.8 | 14.5 | 0.00 | 0.00 | 0.00 | 49 | 1009.1 |
| 20260505021751 | 17 | 259 | 4.8 | 12.9 | 0.00 | 0.00 | 0.00 | 49 | 1009.1 |
| 20260505021251 | 17 | 298 | 4.8 | 12.9 | 0.00 | 0.00 | 0.00 | 49 | 1009.0 |
| 20260505020751 | 17 | 278 | 4.8 | 12.9 | 0.00 | 0.00 | 0.00 | 49 | 1009.0 |
| 20260505020251 | 17 | 281 | 4.8 | 25.7 | 0.00 | 0.00 | 0.00 | 48 | 1008.9 |
| 20260505015752 | 17 | 264 | 6.4 | 25.7 | 0.00 | 0.00 | 0.00 | 48 | 1008.9 |
| 20260505015517 | 17 | 212 | 8.0 | 25.7 | 0.00 | 0.00 | 0.00 | 47 | 1008.8 |
| 20260505014751 | 17 | 296 | 6.4 | 25.7 | 0.00 | 0.00 | 0.00 | 47 | 1008.7 |
| 20260505014251 | 17 | 249 | 4.8 | 12.9 | 0.00 | 0.00 | 0.00 | 47 | 1008.6 |
| 20260505013747 | 17 | 276 | 4.8 | 16.1 | 0.00 | 0.00 | 0.00 | 47 | 1008.6 |
| 20260505013248 | 18 | 295 | 6.4 | 16.1 | 0.00 | 0.00 | 0.00 | 46 | 1008.4 |
| 20260505012749 | 18 | 269 | 6.4 | 16.1 | 0.00 | 0.00 | 0.00 | 46 | 1008.3 |
| 20260505012249 | 18 | 268 | 4.8 | 19.3 | 0.00 | 0.00 | 0.00 | 45 | 1008.3 |
| 20260505011750 | 18 | 279 | 4.8 | 19.3 | 0.00 | 0.00 | 0.00 | 45 | 1008.2 |
| 20260505011249 | 18 | 281 | 3.2 | 12.9 | 0.00 | 0.00 | 0.00 | 44 | 1008.1 |
| 20260505010749 | 17 | 269 | 1.6 | 11.3 | 0.00 | 0.00 | 0.00 | 44 | 1008.0 |
| 20260505010250 | 17 | 146 | 0.0 | 3.2 | 0.00 | 0.00 | 0.00 | 45 | 1007.9 |
| 20260505010013 | 17 | 266 | 0.0 | 1.6 | 0.00 | 0.00 | 0.00 | 45 | 1007.8 |
| 20260505005249 | 18 | 266 | 0.0 | 0.0 | 0.00 | 0.00 | 0.00 | 42 | 1007.5 |
| 20260505004746 | 18 | 266 | 0.0 | 0.0 | 0.00 | 0.00 | 0.00 | 41 | 1007.5 |
| 20260505004504 | 18 | 266 | 0.0 | 1.6 | 0.00 | 0.00 | 0.00 | 40 | 1007.4 |
| 20260505003745 | 18 | 266 | 0.0 | 1.6 | 0.00 | 0.00 | 0.00 | 39 | 1007.3 |
| 20260505003246 | 18 | 266 | 0.0 | 1.6 | 0.00 | 0.00 | 0.00 | 39 | 1007.1 |
| 20260505002746 | 19 | 237 | 0.0 | 1.6 | 0.00 | 0.00 | 0.00 | 38 | 1007.1 |
| 20260505002247 | 19 | 257 | 0.0 | 1.6 | 0.00 | 0.00 | 0.00 | 38 | 1007.0 |
| 20260505001747 | 19 | 257 | 0.0 | 4.8 | 0.00 | 0.00 | 0.00 | 38 | 1006.8 |
| 20260505001247 | 20 | 257 | 0.0 | 4.8 | 0.00 | 0.00 | 0.00 | 37 | 1006.7 |
| 20260505000747 | 20 | 256 | 0.0 | 4.8 | 0.00 | 0.00 | 0.00 | 37 | 1006.7 |
| 20260505000248 | 20 | 274 | 0.0 | 4.8 | 0.00 | 0.00 | 0.00 | 36 | 1006.6 |
| 20260504235747 | 20 | 189 | 1.6 | 4.8 | 0.00 | 0.00 | 0.00 | 36 | 1006.6 |
| 20260504235247 | 20 | 275 | 1.6 | 6.4 | 0.00 | 0.00 | 0.00 | 36 | 1006.5 |
| 20260504235219 | 20 | 255 | 1.6 | 6.4 | 0.00 | 0.00 | 0.00 | 35 | 1006.5 |
| 20260504234244 | 21 | 243 | 1.6 | 6.4 | 0.00 | 0.00 | 0.00 | 35 | 1006.4 |
| 20260504233743 | 21 | 300 | 1.6 | 6.4 | 0.00 | 0.00 | 0.00 | 35 | 1006.3 |
| 20260504233242 | 21 | 243 | 1.6 | 6.4 | 0.00 | 0.00 | 0.00 | 34 | 1006.3 |
| 20260504232742 | 21 | 291 | 1.6 | 6.4 | 0.00 | 0.00 | 0.00 | 34 | 1006.2 |
| 20260504232514 | 21 | 276 | 1.6 | 11.3 | 0.00 | 0.00 | 0.00 | 34 | 1006.1 |
| 20260504231741 | 21 | 298 | 3.2 | 11.3 | 0.00 | 0.00 | 0.00 | 33 | 1006.1 |
| 20260504231241 | 21 | 260 | 3.2 | 11.3 | 0.00 | 0.00 | 0.00 | 34 | 1006.0 |
| 20260504230741 | 21 | 295 | 3.2 | 11.3 | 0.00 | 0.00 | 0.00 | 33 | 1005.9 |
| 20260504230503 | 22 | 250 | 3.2 | 11.3 | 0.00 | 0.00 | 0.00 | 33 | 1005.9 |
| 20260504225741 | 22 | 297 | 4.8 | 11.3 | 0.00 | 0.00 | 0.00 | 32 | 1005.9 |
| 20260504225241 | 22 | 331 | 3.2 | 11.3 | 0.00 | 0.00 | 0.00 | 32 | 1005.9 |
| 20260504224741 | 22 | 323 | 3.2 | 11.3 | 0.00 | 0.00 | 0.00 | 31 | 1005.7 |
| 20260504224243 | 22 | 306 | 3.2 | 11.3 | 0.00 | 0.00 | 0.00 | 32 | 1005.7 |
| 20260504223741 | 22 | 266 | 1.6 | 14.5 | 0.00 | 0.00 | 0.00 | 32 | 1005.5 |
| 20260504223240 | 22 | 283 | 3.2 | 14.5 | 0.00 | 0.00 | 0.00 | 31 | 1005.5 |
| 20260504222740 | 22 | 297 | 3.2 | 14.5 | 0.00 | 0.00 | 0.00 | 31 | 1005.5 |
| 20260504222253 | 22 | 288 | 4.8 | 14.5 | 0.00 | 0.00 | 0.00 | 32 | 1005.5 |
| 20260504221741 | 22 | 254 | 4.8 | 14.5 | 0.00 | 0.00 | 0.00 | 31 | 1005.7 |
| 20260504221510 | 22 | 279 | 4.8 | 19.3 | 0.00 | 0.00 | 0.00 | 32 | 1005.7 |
| 20260504220742 | 22 | 199 | 4.8 | 19.3 | 0.00 | 0.00 | 0.00 | 31 | 1005.6 |
| 20260504220241 | 22 | 237 | 4.8 | 12.9 | 0.00 | 0.00 | 0.00 | 31 | 1005.7 |
| 20260504215741 | 22 | 283 | 6.4 | 16.1 | 0.00 | 0.00 | 0.00 | 30 | 1005.7 |
| 20260504215241 | 22 | 276 | 4.8 | 16.1 | 0.00 | 0.00 | 0.00 | 30 | 1005.6 |
| 20260504214741 | 22 | 264 | 4.8 | 16.1 | 0.00 | 0.00 | 0.00 | 30 | 1005.5 |
| 20260504214518 | 23 | 37 | 4.8 | 16.1 | 0.00 | 0.00 | 0.00 | 30 | 1005.4 |
| 20260504213741 | 23 | 70 | 4.8 | 16.1 | 0.00 | 0.00 | 0.00 | 31 | 1005.5 |
| 20260504213239 | 22 | 289 | 4.8 | 16.1 | 0.00 | 0.00 | 0.00 | 30 | 1005.5 |
| 20260504212739 | 23 | 256 | 4.8 | 16.1 | 0.00 | 0.00 | 0.00 | 31 | 1005.6 |
| 20260504212237 | 22 | 317 | 4.8 | 11.3 | 0.00 | 0.00 | 0.00 | 31 | 1005.7 |
| 20260504211737 | 23 | 255 | 4.8 | 17.7 | 0.00 | 0.00 | 0.00 | 30 | 1005.7 |
| 20260504211250 | 23 | 326 | 4.8 | 22.5 | 0.00 | 0.00 | 0.00 | 29 | 1005.7 |
| 20260504210737 | 23 | 262 | 4.8 | 22.5 | 0.00 | 0.00 | 0.00 | 29 | 1005.5 |
| 20260504210238 | 23 | 324 | 6.4 | 22.5 | 0.00 | 0.00 | 0.00 | 30 | 1005.5 |
| 20260504205736 | 23 | 311 | 8.0 | 22.5 | 0.00 | 0.00 | 0.00 | 29 | 1005.4 |
| 20260504205236 | 23 | 323 | 6.4 | 17.7 | 0.00 | 0.00 | 0.00 | 29 | 1005.5 |
| 20260504204737 | 23 | 349 | 6.4 | 17.7 | 0.00 | 0.00 | 0.00 | 30 | 1005.6 |
| 20260504204453 | 23 | 229 | 6.4 | 17.7 | 0.00 | 0.00 | 0.00 | 29 | 1005.4 |
| 20260504204002 | 23 | 240 | 6.4 | 17.7 | 0.00 | 0.00 | 0.00 | 29 | 1005.5 |
| 20260504203456 | 23 | 300 | 4.8 | 20.9 | 0.00 | 0.00 | 0.00 | 28 | 1005.5 |
| 20260504202735 | 24 | 271 | 4.8 | 20.9 | 0.00 | 0.00 | 0.00 | 29 | 1005.5 |
| 20260504202235 | 23 | 295 | 4.8 | 20.9 | 0.00 | 0.00 | 0.00 | 28 | 1005.6 |
| 20260504201735 | 23 | 245 | 6.4 | 20.9 | 0.00 | 0.00 | 0.00 | 29 | 1005.6 |
| 20260504201235 | 23 | 251 | 4.8 | 14.5 | 0.00 | 0.00 | 0.00 | 28 | 1005.6 |
| 20260504200735 | 23 | 158 | 6.4 | 22.5 | 0.00 | 0.00 | 0.00 | 29 | 1005.5 |
| 20260504200235 | 23 | 288 | 6.4 | 22.5 | 0.00 | 0.00 | 0.00 | 28 | 1005.7 |
| 20260504195734 | 23 | 270 | 6.4 | 22.5 | 0.00 | 0.00 | 0.00 | 28 | 1005.5 |
| 20260504195504 | 23 | 98 | 8.0 | 22.5 | 0.00 | 0.00 | 0.00 | 28 | 1005.7 |
| 20260504194734 | 23 | 297 | 8.0 | 20.9 | 0.00 | 0.00 | 0.00 | 28 | 1005.6 |
| 20260504194233 | 23 | 255 | 8.0 | 20.9 | 0.00 | 0.00 | 0.00 | 28 | 1005.7 |
| 20260504193733 | 23 | 311 | 6.4 | 20.9 | 0.00 | 0.00 | 0.00 | 29 | 1005.7 |
| 20260504193233 | 23 | 207 | 6.4 | 20.9 | 0.00 | 0.00 | 0.00 | 28 | 1005.7 |
| 20260504193002 | 23 | 293 | 8.0 | 20.9 | 0.00 | 0.00 | 0.00 | 27 | 1005.8 |
| 20260504192232 | 23 | 266 | 8.0 | 22.5 | 0.00 | 0.00 | 0.00 | 28 | 1005.7 |
| 20260504191733 | 23 | 241 | 8.0 | 22.5 | 0.00 | 0.00 | 0.00 | 28 | 1005.7 |
| 20260504191232 | 23 | 310 | 6.4 | 22.5 | 0.00 | 0.00 | 0.00 | 28 | 1005.8 |
| 20260504190732 | 23 | 301 | 6.4 | 20.9 | 0.00 | 0.00 | 0.00 | 27 | 1005.9 |
| 20260504190232 | 23 | 83 | 8.0 | 20.9 | 0.00 | 0.00 | 0.00 | 29 | 1005.9 |
| 20260504190222 | 23 | 279 | 6.4 | 20.9 | 0.00 | 0.00 | 0.00 | 29 | 1005.9 |
| 20260504185233 | 23 | 286 | 8.0 | 20.9 | 0.00 | 0.00 | 0.00 | 29 | 1005.9 |
| 20260504184732 | 23 | 255 | 8.0 | 22.5 | 0.00 | 0.00 | 0.00 | 29 | 1006.0 |
| 20260504184231 | 22 | 276 | 8.0 | 22.5 | 0.00 | 0.00 | 0.00 | 28 | 1006.0 |
| 20260504183732 | 22 | 240 | 8.0 | 19.3 | 0.00 | 0.00 | 0.00 | 30 | 1005.9 |
| 20260504183450 | 22 | 249 | 8.0 | 32.2 | 0.00 | 0.00 | 0.00 | 30 | 1006.0 |
| 20260504182952 | 22 | 291 | 8.0 | 32.2 | 0.00 | 0.00 | 0.00 | 30 | 1006.0 |
| 20260504182449 | 22 | 271 | 9.7 | 32.2 | 0.00 | 0.00 | 0.00 | 29 | 1006.1 |
| 20260504181730 | 22 | 254 | 11.3 | 32.2 | 0.00 | 0.00 | 0.00 | 29 | 1006.1 |
| 20260504181230 | 22 | 304 | 8.0 | 24.1 | 0.00 | 0.00 | 0.00 | 30 | 1006.1 |
| 20260504180730 | 22 | 200 | 4.8 | 19.3 | 0.00 | 0.00 | 0.00 | 30 | 1006.2 |
| 20260504180230 | 22 | 254 | 8.0 | 19.3 | 0.00 | 0.00 | 0.00 | 31 | 1006.2 |
| 20260504175743 | 21 | 75 | 8.0 | 19.3 | 0.00 | 0.00 | 0.00 | 30 | 1006.3 |
| 20260504175229 | 22 | 274 | 8.0 | 30.6 | 0.00 | 0.00 | 0.00 | 31 | 1006.2 |
| 20260504174948 | 21 | 273 | 8.0 | 30.6 | 0.00 | 0.00 | 0.00 | 31 | 1006.3 |
| 20260504174229 | 21 | 257 | 8.0 | 30.6 | 0.00 | 0.00 | 0.00 | 31 | 1006.3 |
| 20260504173729 | 21 | 293 | 9.7 | 30.6 | 0.00 | 0.00 | 0.00 | 31 | 1006.5 |
| 20260504173451 | 21 | 274 | 8.0 | 25.7 | 0.00 | 0.00 | 0.00 | 30 | 1006.4 |
| 20260504172729 | 21 | 256 | 8.0 | 22.5 | 0.00 | 0.00 | 0.00 | 30 | 1006.5 |
| 20260504172459 | 21 | 289 | 8.0 | 22.5 | 0.00 | 0.00 | 0.00 | 31 | 1006.6 |
| 20260504171730 | 21 | 180 | 8.0 | 22.5 | 0.00 | 0.00 | 0.00 | 32 | 1006.5 |
| 20260504171230 | 21 | 210 | 9.7 | 30.6 | 0.00 | 0.00 | 0.00 | 31 | 1006.6 |
| 20260504170949 | 21 | 287 | 8.0 | 30.6 | 0.00 | 0.00 | 0.00 | 31 | 1006.6 |
| 20260504170230 | 21 | 237 | 9.7 | 30.6 | 0.00 | 0.00 | 0.00 | 33 | 1006.5 |
| 20260504160225 | 20 | 279 | 8.0 | 25.7 | 0.00 | 0.00 | 0.00 | 34 | 1006.9 |
| 20260504150724 | 18 | 278 | 6.4 | 22.5 | 0.00 | 0.00 | 0.00 | 38 | 1007.8 |
| 20260504150223 | 18 | 273 | 6.4 | 22.5 | 0.00 | 0.00 | 0.00 | 38 | 1007.8 |
| 20260504150204 | 18 | 337 | 4.8 | 19.3 | 0.00 | 0.00 | 0.00 | 37 | 1007.9 |
| 20260504141222 | 17 | 313 | 4.8 | 12.9 | 0.00 | 0.00 | 0.00 | 43 | 1008.6 |
| 20260504140722 | 17 | 272 | 4.8 | 12.9 | 0.00 | 0.00 | 0.00 | 42 | 1008.6 |
| 20260504140235 | 17 | 140 | 3.2 | 22.5 | 0.00 | 0.00 | 0.00 | 43 | 1008.7 |
| 20260504130720 | 15 | 359 | 3.2 | 16.1 | 0.00 | 0.00 | 0.00 | 47 | 1009.5 |
| 20260504130220 | 14 | 270 | 4.8 | 16.1 | 0.00 | 0.00 | 0.00 | 48 | 1009.5 |
| 20260504120214 | 11 | 262 | 3.2 | 9.7 | 0.00 | 0.00 | 0.00 | 57 | 1010.2 |
| 20260504110710 | 9 | 315 | 1.6 | 11.3 | 0.00 | 0.00 | 0.00 | 58 | 1010.6 |
| 20260504110210 | 9 | 268 | 1.6 | 11.3 | 0.00 | 0.00 | 0.00 | 58 | 1010.7 |
| 20260504100208 | 7 | 255 | 0.0 | 8.0 | 0.00 | 0.00 | 0.00 | 60 | 1010.4 |
| 20260504081706 | 7 | 304 | 0.0 | 9.7 | 0.00 | 0.00 | 0.00 | 60 | 1010.2 |
| 20260504081205 | 7 | 290 | 1.6 | 9.7 | 0.00 | 0.00 | 0.00 | 60 | 1010.1 |
| 20260504080704 | 7 | 252 | 1.6 | 9.7 | 0.00 | 0.00 | 0.00 | 60 | 1010.2 |
| 20260504080203 | 7 | 262 | 1.6 | 9.7 | 0.00 | 0.00 | 0.00 | 60 | 1010.1 |
| 20260504070205 | 6 | 301 | 0.0 | 1.6 | 0.00 | 0.00 | 0.00 | 63 | 1009.9 |
| 20260504060201 | 4 | 255 | 0.0 | 0.0 | 0.00 | 0.00 | 0.00 | 66 | 1009.9 |
| 20260504050656 | 4 | 255 | 0.0 | 0.0 | 0.00 | 0.00 | 0.00 | 65 | 1009.7 |
| 20260504050154 | 4 | 255 | 0.0 | 0.0 | 0.00 | 0.00 | 0.00 | 65 | 1009.8 |
| 20260504045656 | 4 | 255 | 0.0 | 0.0 | 0.00 | 0.00 | 0.00 | 65 | 1009.8 |
| 20260504045421 | 5 | 255 | 0.0 | 0.0 | 0.00 | 0.00 | 0.00 | 64 | 1009.8 |
| 20260504044655 | 5 | 255 | 0.0 | 0.0 | 0.00 | 0.00 | 0.00 | 64 | 1009.8 |
| 20260504044154 | 5 | 255 | 0.0 | 0.0 | 0.00 | 0.00 | 0.00 | 63 | 1009.7 |
| 20260504043654 | 5 | 255 | 0.0 | 0.0 | 0.00 | 0.00 | 0.00 | 62 | 1009.8 |
| 20260504043154 | 5 | 255 | 0.0 | 0.0 | 0.00 | 0.00 | 0.00 | 62 | 1009.7 |
| 20260504042655 | 5 | 255 | 0.0 | 0.0 | 0.00 | 0.00 | 0.00 | 62 | 1009.7 |
| 20260504042154 | 6 | 255 | 0.0 | 1.6 | 0.00 | 0.00 | 0.00 | 62 | 1009.6 |
| 20260504041654 | 6 | 255 | 0.0 | 3.2 | 0.00 | 0.00 | 0.00 | 61 | 1009.7 |
| 20260504041155 | 6 | 274 | 0.0 | 3.2 | 0.00 | 0.00 | 0.00 | 61 | 1009.6 |
| 20260504040653 | 6 | 262 | 0.0 | 3.2 | 0.00 | 0.00 | 0.00 | 62 | 1009.6 |
| 20260504040155 | 6 | 262 | 0.0 | 3.2 | 0.00 | 0.00 | 0.00 | 62 | 1009.5 |